O3b星座 PFM星 (O3B PFM)

导读

O3B PFM是O3B中圆地球轨道通信星座的首颗验证卫星,于2013年6月25日发射入轨。作为“中地球轨道卫星”星座的开路先锋,它主要为偏远地区、海上及发展中区域提供高速互联网与通信服务,弥补传统地面网络覆盖不足,支撑了后续O3B星座组网部署,推动了全球通信网络均衡覆盖发展,在卫星通信商业化进程中具有标志性意义。

Basic Information
目录编号:
39191
目录名称:
O3B PFM
国际标识:
2013-031D
轨道中心:
EARTH
卫星名称:
O3b星座 PFM星
卫星全名:
O3b星座 PFM星 (O3B PFM)
卫星状态:
在轨 (已飞行4735 天)
发射日期:
2013-06-25 UTC
国别 :
(O3B)
星等 :
--
Orbit Information
数据来源 国际轨道数据 AOE轨道数据
星历时间 2026-06-11T13:48:57+0800
1天前
查看轨道信息
2026-06-12T07:00:00+0800
21小时前
查看轨道信息
半长轴 14444.02km 14444.028km
偏心率 0.0005333 0.0005383
轨道倾角 0.068° 0.068°
近地点辐角 82.001° 80.261°
升交点赤经 353.054° 353.735°
平近点角 285.007° 135.580°
近地点 8058.18km 8058.115km
远地点 8073.586km 8073.667km
周期 287.933分钟 287.933分钟
每日圈数 5.001159 5.001155
Detailed Information
平衡模式:
三轴稳定
覆盖范围:
全球
运营商:
欧洲卫星公司
运营商所在国:
卢森堡
制造商(研发单位):
阿莱尼亚宇航公司
制造商所在国:
意大利
使用方式:
暂无
Satellite Introduction
O3b卫星星座分为O3b FM卫星星座和O3b mPOWER卫星星座,前者是由阿莱尼亚宇航公司制造的第一代O3b卫星星座,后者是由波音公司制造的第二代O3b卫星星座。O3b卫星初始星座运行于赤道圆轨道,轨道高度8062公里,能够覆盖全球南北纬45°之间所有地方,在南、北纬45°~62°范围内也能提供一定的服务。该卫星仍在工作。
2D Orbit Map
3D Orbit Map
Orbit Altitude Analysis Chart
Orbit Inclination Analysis Chart
Orbit Comprehensive Analysis Chart
View Comprehensive Chart